#timestamp,LO_Frequency,Hit 
1503122415.6,286047001.6,N
1503122435.4,286046998.4,N
1503122455.3,286047001.0,N
1503122475.1,286046998.9,N
1503122495.8,286046999.1,N
1503122515.7,286046998.0,N
1503122535.5,286046999.2,N
1503122555.3,286046995.3,N
1503122575.2,286046995.1,N
1503122595.9,286046993.3,N
1503122615.7,286046997.2,N
1503122635.6,286046997.9,N
1503122655.4,286046997.3,N
1503122675.2,286046997.7,N
1503122695.0,286046996.5,N
1503122696.0,286046996.5,N
1503122715.8,286046998.9,N
1503122735.6,286046998.8,N
1503122755.4,286047000.3,N
1503122775.3,286047002.7,N
1503122795.1,286047001.4,N
1503122815.8,286047003.4,N
1503122835.7,286047010.1,P
1503122855.5,286047007.8,N
1503122875.3,286047007.2,N
1503122895.2,286047005.0,N
1503122915.0,286047006.7,N
1503122915.9,286047006.7,N
1503122935.8,286047009.8,P
1503122955.6,286047004.9,N
1503122975.4,286047006.0,N
1503122995.3,286047008.4,P
1503123015.1,286047002.7,P
1503123016.0,286047002.7,N
1503123035.8,286046998.3,N
1503123055.7,286047003.3,N
1503123075.5,286047003.0,N
1503123095.3,286047004.6,N
1503123115.1,286047006.5,N
1503123135.9,286047004.7,N
1503123155.7,286047003.6,N
1503123175.5,286047005.7,N
1503123195.4,286047007.6,P
1503123215.2,286047001.8,N
1503123235.0,286046999.9,N
1503123236.0,286046999.9,N
1503123255.8,286047001.7,N
1503123275.6,286047005.0,N
1503123295.4,286047006.5,N
1503123315.3,286047008.7,P
1503123335.1,286047005.2,N
1503123355.8,286047004.6,N
1503123375.7,286047009.7,P
1503123395.5,286047005.7,N
1503123415.4,286047006.0,P
1503123435.2,286047005.8,P
1503123455.0,286046998.9,N
1503123455.9,286046998.9,N
1503123475.8,286047000.9,N
1503123495.6,286046996.6,N
1503123515.4,286046996.9,N
1503123535.3,286046996.8,N
1503123555.1,286046996.9,N
1503123556.0,286046996.9,N
1503123575.8,286046997.4,N
1503123595.7,286046997.7,N
1503123615.5,286046997.8,N
1503123635.3,286046999.4,N
1503123655.1,286046999.9,N
1503123675.9,286047001.7,N
1503123695.7,286047003.1,N
1503123715.5,286047005.0,N
1503123735.4,286047003.0,N
1503123755.2,286047005.0,N
1503123775.0,286047006.0,N
1503123775.9,286047006.0,N
1503123795.8,286047004.7,N
1503123815.6,286047003.3,N
1503123835.4,286047005.8,N
1503123855.3,286047007.4,N
1503123875.1,286047007.1,N
1503123876.0,286047007.1,N
1503123895.8,286047008.8,N
1503123915.7,286047008.0,N
1503123935.5,286047010.4,N
1503123955.3,286047008.7,N
1503123975.2,286047008.3,N
1503123995.9,286047007.3,N
1503124015.7,286047008.4,N
1503124035.5,286047010.2,N
1503124055.4,286047007.7,N
1503124075.2,286047009.8,N
1503124095.0,286047009.1,N
1503124095.9,286047009.1,N
1503124115.8,286047007.0,N
1503124135.6,286047006.2,N
1503124155.4,286047006.6,N
1503124175.3,286047007.0,N
1503124195.1,286047008.3,P
1503124215.8,286047003.9,P
1503124235.7,286047003.5,N
1503124255.5,286047005.5,N
1503124275.3,286047004.9,N
1503124295.2,286047007.0,P
1503124315.0,286046998.8,N
1503124315.9,286046998.8,N
1503124335.7,286046997.1,N
1503124355.6,286046995.3,N
1503124375.4,286046996.8,N
1503124395.2,286046998.9,N
1503124415.1,286046999.1,N
1503124416.0,286046999.1,N
1503124435.8,286046998.8,N
1503124455.6,286047000.8,N
1503124475.5,286046999.6,N
1503124495.3,286046999.3,N
1503124515.1,286046998.9,N
1503124535.9,286046995.9,N
1503124555.7,286046995.7,N
1503124575.5,286046995.7,N
1503124595.4,286046996.1,N
1503124615.2,286046994.0,N
1503124635.0,286046996.0,N
1503124635.9,286046996.0,N
1503124655.8,286046994.3,N
1503124675.6,286046992.2,N
1503124695.4,286046993.7,N
1503124715.2,286046993.5,N
1503124735.1,286046995.1,N
1503124736.0,286046995.1,N
1503124755.8,286046996.1,N
1503124775.6,286046995.2,N
1503124795.5,286046997.4,N
1503124815.3,286046999.4,N
1503124835.1,286046997.9,N
1503124855.9,286046996.8,N
1503124875.7,286046997.5,N
1503124895.5,286046996.0,N
1503124915.4,286046996.4,N
1503124935.2,286046995.5,N
1503124955.0,286046993.6,P
1503124955.9,286046993.6,P
1503124975.8,286046996.5,N
1503124995.6,286046997.2,N
1503125015.4,286046999.3,N
1503125035.3,286046997.6,N
1503125055.1,286046997.4,N
1503125056.0,286046997.4,N
1503125075.8,286046999.6,N
1503125095.7,286046999.5,N
1503125115.5,286046996.5,N
1503125135.3,286046997.5,N
1503125155.2,286046999.6,N
1503125175.9,286046998.6,N
1503125195.7,286047002.5,N
1503125215.5,286047002.8,N
1503125235.4,286047004.4,N
1503125255.2,286047005.7,N
1503125275.0,286047004.4,N
1503125275.9,286047004.4,N
1503125295.8,286047001.5,N
1503125315.6,286047003.8,N
1503125335.4,286046999.8,N
1503125355.3,286047001.9,N
1503125375.1,286047001.7,N
1503125395.8,286047000.3,N
1503125415.7,286047000.4,N
1503125435.5,286047001.7,N
1503125455.3,286047000.4,N
1503125475.2,286047001.0,N
1503125495.9,286047001.5,N
1503125515.9,286047001.6,N
1503125535.7,286047004.1,N
1503125555.5,286047001.5,N
1503125575.4,286047001.4,N
1503125595.2,286047006.0,N
1503125615.0,286047004.1,N
1503125615.9,286047004.1,N
1503125635.8,286047003.3,N
1503125655.6,286047003.4,N
1503125675.4,286046998.2,N
1503125695.3,286046997.2,N
1503125715.1,286046997.7,N
1503125735.8,286046998.6,N
1503125755.7,286046997.1,N
1503125775.5,286046997.9,N
1503125795.3,286046997.0,N
1503125815.2,286047000.3,N
1503125835.9,286047000.0,N
1503125855.7,286046998.3,N
1503125875.5,286046999.7,N
1503125895.4,286046999.0,N
1503125915.2,286047000.1,N
1503125935.0,286047000.2,N
1503125935.9,286047000.2,N
1503125955.8,286047001.0,N
1503125975.6,286047000.8,N
1503125995.4,286047000.2,N
